| time (UTC) | temp C | wind direction | speed KPH | gust KPH | rain 1hr cm | rain 24hr cm | rain mn cm | humidity % | barometer mb |
| 20260503181342 | 10 | 0 | 0.0 | 0.0 | 0.00 | 0.00 | 0.00 | 46 | 1006.5 |
| 20260503180442 | 11 | 0 | 0.0 | 1.6 | 0.00 | 0.00 | 0.00 | 43 | 1006.4 |
| 20260503175543 | 11 | 0 | 0.0 | 0.0 | 0.00 | 0.00 | 0.00 | 41 | 1006.4 |
| 20260503174642 | 11 | 0 | 0.0 | 0.0 | 0.00 | 0.00 | 0.00 | 39 | 1006.3 |
| 20260503173742 | 11 | 0 | 0.0 | 0.0 | 0.00 | 0.00 | 0.00 | 38 | 1006.3 |
| 20260503172842 | 11 | 0 | 0.0 | 0.0 | 0.00 | 0.00 | 0.00 | 37 | 1006.2 |
| 20260503171942 | 11 | 0 | 0.0 | 6.4 | 0.00 | 0.00 | 0.00 | 37 | 1006.2 |
| 20260503171043 | 12 | 0 | 0.0 | 0.0 | 0.00 | 0.00 | 0.00 | 36 | 1006.1 |
| 20260503170142 | 12 | 0 | 0.0 | 0.0 | 0.00 | 0.00 | 0.00 | 35 | 1006.1 |
| 20260503150442 | 13 | 265 | 1.6 | 9.7 | 0.00 | 0.00 | 0.00 | 31 | 1006.3 |
| 20260503140142 | 13 | 327 | 3.2 | 12.9 | 0.00 | 0.00 | 0.00 | 33 | 1006.2 |
| 20260503130742 | 14 | 290 | 1.6 | 11.3 | 0.00 | 0.00 | 0.00 | 34 | 1006.1 |
| 20260503110142 | 11 | 335 | 1.6 | 8.0 | 0.00 | 0.00 | 0.00 | 53 | 1006.4 |
| 20260503090442 | 8 | 343 | 1.6 | 16.1 | 0.00 | 0.00 | 0.00 | 69 | 1006.8 |
| 20260503081042 | 8 | 336 | 1.6 | 12.9 | 0.00 | 0.00 | 0.00 | 70 | 1006.3 |
| 20260503080142 | 8 | 0 | 0.0 | 6.4 | 0.00 | 0.00 | 0.00 | 71 | 1006.2 |
| 20260503072542 | 8 | 329 | 1.6 | 12.9 | 0.00 | 0.00 | 0.00 | 72 | 1005.9 |
| 20260503071642 | 8 | 0 | 0.0 | 4.8 | 0.00 | 0.00 | 0.00 | 72 | 1005.7 |
| 20260503070742 | 8 | 340 | 3.2 | 12.9 | 0.00 | 0.00 | 0.00 | 73 | 1005.7 |
| 20260503054642 | 8 | 339 | 1.6 | 9.7 | 0.00 | 0.00 | 0.00 | 72 | 1005.2 |
| 20260503053742 | 8 | 0 | 0.0 | 11.3 | 0.00 | 0.00 | 0.00 | 72 | 1005.1 |
| 20260503052844 | 8 | 337 | 3.2 | 14.5 | 0.00 | 0.00 | 0.00 | 71 | 1005.1 |
| 20260503052151 | 8 | 339 | 1.6 | 14.5 | 0.00 | 0.00 | 0.00 | 71 | 1005.1 |
| 20260503051042 | 8 | 0 | 0.0 | 14.5 | 0.00 | 0.00 | 0.00 | 72 | 1004.9 |
| 20260503050142 | 8 | 327 | 1.6 | 14.5 | 0.00 | 0.00 | 0.00 | 72 | 1004.9 |
| 20260503045242 | 8 | 0 | 0.0 | 14.5 | 0.00 | 0.00 | 0.00 | 73 | 1004.8 |
| 20260503044342 | 8 | 0 | 0.0 | 0.0 | 0.00 | 0.00 | 0.00 | 73 | 1004.9 |
| 20260503043442 | 8 | 0 | 0.0 | 0.0 | 0.00 | 0.00 | 0.00 | 73 | 1004.9 |
| 20260503042756 | 8 | 0 | 0.0 | 0.0 | 0.00 | 0.00 | 0.00 | 73 | 1004.8 |
| 20260503041853 | 8 | 0 | 0.0 | 8.0 | 0.00 | 0.00 | 0.00 | 73 | 1004.8 |
| 20260503040742 | 8 | 0 | 0.0 | 1.6 | 0.00 | 0.00 | 0.00 | 72 | 1004.7 |
| 20260503035842 | 8 | 0 | 0.0 | 1.6 | 0.00 | 0.00 | 0.00 | 72 | 1004.6 |
| 20260503034942 | 8 | 0 | 0.0 | 0.0 | 0.00 | 0.00 | 0.00 | 72 | 1004.7 |
| 20260503034252 | 8 | 0 | 0.0 | 8.0 | 0.00 | 0.00 | 0.00 | 71 | 1004.8 |
| 20260503033141 | 8 | 0 | 0.0 | 4.8 | 0.00 | 0.00 | 0.00 | 70 | 1004.7 |
| 20260503032452 | 9 | 0 | 0.0 | 3.2 | 0.00 | 0.00 | 0.00 | 70 | 1004.6 |
| 20260503031342 | 9 | 0 | 0.0 | 0.0 | 0.00 | 0.00 | 0.00 | 69 | 1004.7 |
| 20260503030442 | 9 | 0 | 0.0 | 0.0 | 0.00 | 0.00 | 0.00 | 68 | 1004.7 |
| 20260503025542 | 9 | 332 | 1.6 | 12.9 | 0.00 | 0.00 | 0.00 | 68 | 1004.7 |
| 20260503024851 | 9 | 0 | 0.0 | 12.9 | 0.00 | 0.00 | 0.00 | 67 | 1004.5 |
| 20260503023742 | 10 | 0 | 0.0 | 6.4 | 0.00 | 0.00 | 0.00 | 67 | 1004.4 |
| 20260503022841 | 10 | 0 | 0.0 | 0.0 | 0.00 | 0.00 | 0.00 | 66 | 1004.4 |
| 20260503022153 | 10 | 0 | 0.0 | 8.0 | 0.00 | 0.00 | 0.00 | 66 | 1004.4 |
| 20260503021042 | 10 | 0 | 0.0 | 4.8 | 0.00 | 0.00 | 0.00 | 65 | 1004.3 |
| 20260503020353 | 10 | 0 | 0.0 | 6.4 | 0.00 | 0.00 | 0.00 | 64 | 1004.3 |
| 20260503015241 | 10 | 0 | 0.0 | 0.0 | 0.00 | 0.00 | 0.00 | 64 | 1004.2 |
| 20260503014342 | 10 | 0 | 0.0 | 4.8 | 0.00 | 0.00 | 0.00 | 64 | 1004.2 |
| 20260503013442 | 10 | 0 | 0.0 | 3.2 | 0.00 | 0.00 | 0.00 | 64 | 1004.2 |
| 20260503012542 | 10 | 0 | 0.0 | 3.2 | 0.00 | 0.00 | 0.00 | 63 | 1004.2 |
| 20260503011855 | 10 | 0 | 0.0 | 3.2 | 0.00 | 0.00 | 0.00 | 63 | 1004.2 |
| 20260503010742 | 10 | 0 | 0.0 | 1.6 | 0.00 | 0.00 | 0.00 | 63 | 1004.2 |
| 20260503010054 | 10 | 0 | 0.0 | 3.2 | 0.00 | 0.00 | 0.00 | 63 | 1004.1 |
| 20260503004942 | 10 | 0 | 0.0 | 0.0 | 0.00 | 0.00 | 0.00 | 63 | 1004.1 |
| 20260503004042 | 10 | 0 | 0.0 | 0.0 | 0.00 | 0.00 | 0.00 | 63 | 1004.0 |
| 20260503003142 | 10 | 0 | 0.0 | 0.0 | 0.00 | 0.00 | 0.00 | 64 | 1003.8 |
| 20260503002242 | 11 | 0 | 0.0 | 0.0 | 0.00 | 0.00 | 0.00 | 64 | 1004.0 |
| 20260503001342 | 11 | 0 | 0.0 | 0.0 | 0.00 | 0.00 | 0.00 | 63 | 1003.9 |
| 20260503000442 | 11 | 0 | 0.0 | 0.0 | 0.00 | 0.00 | 0.00 | 63 | 1004.0 |
| 20260502235541 | 11 | 0 | 0.0 | 0.0 | 0.00 | 0.00 | 0.00 | 63 | 1004.0 |
| 20260502234642 | 11 | 0 | 0.0 | 0.0 | 0.00 | 0.00 | 0.00 | 63 | 1004.0 |
| 20260502233956 | 11 | 0 | 0.0 | 0.0 | 0.00 | 0.00 | 0.00 | 62 | 1003.9 |
| 20260502232842 | 11 | 0 | 0.0 | 0.0 | 0.00 | 0.00 | 0.00 | 62 | 1004.0 |
| 20260502231942 | 11 | 0 | 0.0 | 0.0 | 0.00 | 0.00 | 0.00 | 61 | 1004.0 |
| 20260502231253 | 11 | 0 | 0.0 | 0.0 | 0.00 | 0.00 | 0.00 | 61 | 1004.0 |
| 20260502225241 | 12 | 0 | 0.0 | 0.0 | 0.00 | 0.00 | 0.00 | 58 | 1004.1 |
| 20260502224340 | 12 | 0 | 0.0 | 0.0 | 0.00 | 0.00 | 0.00 | 58 | 1004.2 |
| 20260502223440 | 12 | 0 | 0.0 | 0.0 | 0.00 | 0.00 | 0.00 | 57 | 1004.3 |
| 20260502222754 | 12 | 0 | 0.0 | 0.0 | 0.00 | 0.00 | 0.00 | 57 | 1004.4 |
| 20260502221640 | 12 | 0 | 0.0 | 0.0 | 0.00 | 0.00 | 0.00 | 57 | 1004.4 |
| 20260502220741 | 12 | 0 | 0.0 | 0.0 | 0.00 | 0.00 | 0.00 | 57 | 1004.6 |
| 20260502220051 | 12 | 0 | 0.0 | 0.0 | 0.00 | 0.00 | 0.00 | 56 | 1004.6 |
| 20260502214941 | 13 | 0 | 0.0 | 0.0 | 0.00 | 0.00 | 0.00 | 57 | 1004.4 |
| 20260502214040 | 13 | 0 | 0.0 | 0.0 | 0.00 | 0.00 | 0.00 | 54 | 1004.6 |
| 20260502213141 | 13 | 0 | 0.0 | 0.0 | 0.00 | 0.00 | 0.00 | 53 | 1004.6 |
| 20260502212241 | 13 | 0 | 0.0 | 6.4 | 0.00 | 0.00 | 0.00 | 53 | 1004.5 |
| 20260502211341 | 13 | 0 | 0.0 | 3.2 | 0.00 | 0.00 | 0.00 | 52 | 1004.6 |
| 20260502210655 | 13 | 0 | 0.0 | 1.6 | 0.00 | 0.00 | 0.00 | 52 | 1004.6 |
| 20260502205753 | 13 | 0 | 0.0 | 3.2 | 0.00 | 0.00 | 0.00 | 52 | 1004.6 |
| 20260502204645 | 13 | 0 | 0.0 | 0.0 | 0.00 | 0.00 | 0.00 | 52 | 1004.8 |
| 20260502203740 | 13 | 0 | 0.0 | 0.0 | 0.00 | 0.00 | 0.00 | 52 | 1004.8 |
| 20260502203055 | 13 | 0 | 0.0 | 0.0 | 0.00 | 0.00 | 0.00 | 53 | 1004.8 |
| 20260502201940 | 14 | 0 | 0.0 | 0.0 | 0.00 | 0.00 | 0.00 | 54 | 1004.8 |
| 20260502201040 | 14 | 0 | 0.0 | 0.0 | 0.00 | 0.00 | 0.00 | 54 | 1004.7 |
| 20260502200141 | 14 | 0 | 0.0 | 0.0 | 0.00 | 0.00 | 0.00 | 53 | 1004.8 |
| 20260502195241 | 14 | 0 | 0.0 | 0.0 | 0.00 | 0.00 | 0.00 | 52 | 1004.8 |
| 20260502194341 | 15 | 0 | 0.0 | 0.0 | 0.00 | 0.00 | 0.00 | 52 | 1004.7 |
| 20260502193441 | 15 | 0 | 0.0 | 0.0 | 0.00 | 0.00 | 0.00 | 51 | 1004.7 |
| 20260502192541 | 15 | 0 | 0.0 | 0.0 | 0.00 | 0.00 | 0.00 | 51 | 1004.6 |
| 20260502191640 | 15 | 0 | 0.0 | 0.0 | 0.00 | 0.00 | 0.00 | 51 | 1004.7 |
| 20260502190741 | 15 | 0 | 0.0 | 0.0 | 0.00 | 0.00 | 0.00 | 51 | 1004.5 |
| 20260502185843 | 15 | 0 | 0.0 | 0.0 | 0.00 | 0.00 | 0.00 | 50 | 1004.5 |
| 20260502184940 | 15 | 0 | 0.0 | 0.0 | 0.00 | 0.00 | 0.00 | 48 | 1004.4 |
| 20260502184040 | 16 | 0 | 0.0 | 0.0 | 0.00 | 0.00 | 0.00 | 48 | 1004.3 |
| 20260502183355 | 16 | 0 | 0.0 | 0.0 | 0.00 | 0.00 | 0.00 | 47 | 1004.2 |
| 20260502182452 | 16 | 0 | 0.0 | 0.0 | 0.00 | 0.00 | 0.00 | 48 | 1004.1 |
| 20260502181555 | 16 | 0 | 0.0 | 0.0 | 0.00 | 0.00 | 0.00 | 47 | 1004.1 |